SL-16 DEB, 22291

Orbit data source: Space-Track

SL-16 DEB, 22291 is space debris in LEO originally from a launch on Fri, 25 Dec 1992 UTC launched from the Tyuratam Missile And Space Complex (TTMTR). Debris objects in space refer to the collection of defunct objects orbiting the Earth. Examples of debris include non-operational satellites, rocket bodies, and fragments generated from explosions, collisions, or faulty payload assembly.

Loading next visibility...
Identifier
22291, 1992-093F
Orbit
LEO
Country
Flag of CISCIS
Related business
Manufacturer
Yuzhnoe
Mission
Spacecraft
Bus & Motor
SEP MOTOR COVER, Unknown motor
Mass
~0 kg wet, ~1 kg dry
Launch date (UTC)
1992-12-25 (33 years ago)
Launch vehicle
Unknown
Launch site
Tyuratam Missile And Space Complex (TTMTR)
Object type
Payload
Rocket body
Debris
Shape & HBR
Unknown shape, 0.1 m
Radar Cross Section
Small (<0.1 m²)

Expand to show TLE details & history
Last TLE update: 12 hours ago

TLE from 12 hours ago
0 SL-16 DEB
1 22291U 92093F   26036.99477596  .00000074  00000-0  10953-3 0  9994
2 22291  71.0100  20.8987 0210198 232.0293 185.9971 13.72529781657747
Epoch: 2026-02-05T23:52Z
TLE epoch observation values (Epoch: 2026-02-05T23:52:28.642Z)
Latitude
53.23398°
Longitude
-86.08559°
Altitude
1,152.749 km
Speed
7.205 km/s
True Right ascension
03h 12m 41s
True Declination
53° 04' 39"
Sunlit
Object was in daylight at epoch
Visualization orbit readout
Latitude
Unknown
Longitude
Unknown
Altitude
Unknown
Speed
Unknown
Apparent Right ascension
Unknown
Apparent Declination
Unknown
Sunlit
N/A
Visualization observer readout
Local Sidereal Time
13:55:07
Azimuth
Unknown
Elevation
Unknown
Doppler factor
Unknown
Orbital elements
Apogee altitude
1,143.312 km
Perigee altitude
833.623 km
Semi-major axis
7,366.604 km
Eccentricity
0.02102
Inclination
71.01°
RAAN
20.8987°
Arg. of periapsis
232.0293°
True anomaly
185.75186°
Mean anomaly
185.9971°
Eccentric anomaly
185.87385°
Mean motion
3.43275 °/min
Orbital period
104.87 mins
BSTAR
0.00010953
Loading maneuver chart data...
Computing Atmospheric mass density...
Loading historical data...
Loading historical data...
Loading historical data...
Loading historical data...
Loading historical data...
Loading historical data...
Loading historical data...

Documentation

Showing up to 5 results
|